| time (UTC) | temp C | wind direction | speed KPH | gust KPH | rain 1hr cm | rain 24hr cm | rain mn cm | humidity % | barometer mb |
| 20260506231832 | 20 | 13 | 4.8 | 17.7 | 0.00 | 0.00 | 0.00 | 44 | 1012.2 |
| 20260506230822 | 21 | 242 | 3.2 | 24.1 | 0.00 | 0.00 | 0.00 | 44 | 1012.1 |
| 20260506225827 | 21 | 43 | 3.2 | 25.7 | 0.00 | 0.00 | 0.00 | 45 | 1012.2 |
| 20260506224818 | 21 | 336 | 3.2 | 19.3 | 0.00 | 0.00 | 0.00 | 43 | 1012.2 |
| 20260506223829 | 21 | 337 | 4.8 | 24.1 | 0.00 | 0.00 | 0.00 | 42 | 1012.0 |
| 20260506222820 | 21 | 29 | 8.0 | 22.5 | 0.00 | 0.00 | 0.00 | 41 | 1012.9 |
| 20260506221816 | 21 | 360 | 6.4 | 22.5 | 0.00 | 0.00 | 0.00 | 43 | 1012.9 |
| 20260506220828 | 22 | 268 | 8.0 | 29.0 | 0.00 | 0.00 | 0.00 | 43 | 1012.7 |
| 20260506215819 | 22 | 266 | 6.4 | 17.7 | 0.00 | 0.00 | 0.00 | 42 | 1012.7 |
| 20260506214831 | 22 | 315 | 6.4 | 24.1 | 0.00 | 0.00 | 0.00 | 42 | 1012.7 |
| 20260506213826 | 23 | 316 | 6.4 | 20.9 | 0.00 | 0.00 | 0.00 | 44 | 1012.9 |
| 20260506212818 | 23 | 123 | 3.2 | 27.4 | 0.00 | 0.00 | 0.00 | 43 | 1012.7 |
| 20260506211829 | 23 | 360 | 8.0 | 24.1 | 0.00 | 0.00 | 0.00 | 43 | 1012.7 |
| 20260506210822 | 23 | 146 | 6.4 | 24.1 | 0.00 | 0.00 | 0.00 | 43 | 1012.6 |
| 20260506205819 | 23 | 309 | 4.8 | 22.5 | 0.00 | 0.00 | 0.00 | 42 | 1012.6 |
| 20260506204830 | 23 | 45 | 8.0 | 25.7 | 0.00 | 0.00 | 0.00 | 41 | 1012.6 |
| 20260506203822 | 24 | 328 | 6.4 | 22.5 | 0.00 | 0.00 | 0.00 | 44 | 1012.5 |
| 20260506202833 | 25 | 342 | 4.8 | 19.3 | 0.00 | 0.00 | 0.00 | 41 | 1012.4 |
| 20260506201823 | 25 | 277 | 4.8 | 17.7 | 0.00 | 0.00 | 0.00 | 42 | 1012.4 |
| 20260506200836 | 25 | 323 | 6.4 | 17.7 | 0.00 | 0.00 | 0.00 | 42 | 1012.3 |
| 20260506195825 | 24 | 355 | 4.8 | 16.1 | 0.00 | 0.00 | 0.00 | 42 | 1012.1 |
| 20260506194817 | 25 | 21 | 3.2 | 17.7 | 0.00 | 0.00 | 0.00 | 41 | 1012.1 |
| 20260506193829 | 25 | 325 | 4.8 | 24.1 | 0.00 | 0.00 | 0.00 | 41 | 1012.3 |
| 20260506192826 | 24 | 325 | 8.0 | 29.0 | 0.00 | 0.00 | 0.00 | 40 | 1012.3 |
| 20260506191818 | 24 | 336 | 6.4 | 35.4 | 0.00 | 0.00 | 0.00 | 38 | 1012.3 |
| 20260506190829 | 25 | 254 | 4.8 | 29.0 | 0.00 | 0.00 | 0.00 | 37 | 1011.9 |
| 20260506185821 | 25 | 55 | 6.4 | 25.7 | 0.00 | 0.00 | 0.00 | 38 | 1011.9 |
| 20260506184833 | 24 | 348 | 8.0 | 24.1 | 0.00 | 0.00 | 0.00 | 36 | 1011.9 |
| 20260506183827 | 24 | 5 | 6.4 | 20.9 | 0.00 | 0.00 | 0.00 | 37 | 1011.4 |
| 20260506182821 | 24 | 302 | 11.3 | 20.9 | 0.00 | 0.00 | 0.00 | 38 | 1011.8 |
| 20260506181816 | 24 | 279 | 8.0 | 24.1 | 0.00 | 0.00 | 0.00 | 39 | 1011.8 |
| 20260506175820 | 23 | 115 | 8.0 | 22.5 | 0.00 | 0.00 | 0.00 | 39 | 1012.0 |
| 20260506174832 | 23 | 251 | 9.7 | 22.5 | 0.00 | 0.00 | 0.00 | 39 | 1012.0 |
| 20260506173823 | 23 | 360 | 6.4 | 17.7 | 0.00 | 0.00 | 0.00 | 43 | 1012.4 |
| 20260506172833 | 23 | 355 | 4.8 | 19.3 | 0.00 | 0.00 | 0.00 | 42 | 1012.5 |
| 20260506171824 | 23 | 317 | 9.7 | 17.7 | 0.00 | 0.00 | 0.00 | 42 | 1012.5 |
| 20260506170834 | 22 | 14 | 3.2 | 17.7 | 0.00 | 0.00 | 0.00 | 46 | 1012.5 |
| 20260506165825 | 22 | 355 | 1.6 | 16.1 | 0.00 | 0.00 | 0.00 | 48 | 1012.7 |
| 20260506164818 | 22 | 254 | 3.2 | 14.5 | 0.00 | 0.00 | 0.00 | 47 | 1012.7 |
| 20260506163828 | 21 | 67 | 6.4 | 17.7 | 0.00 | 0.00 | 0.00 | 47 | 1012.8 |
| 20260506162817 | 21 | 5 | 4.8 | 22.5 | 0.00 | 0.00 | 0.00 | 47 | 1013.0 |
| 20260506161829 | 21 | 32 | 3.2 | 17.7 | 0.00 | 0.00 | 0.00 | 48 | 1013.0 |
| 20260506160819 | 20 | 350 | 4.8 | 19.3 | 0.00 | 0.00 | 0.00 | 51 | 1013.1 |
| 20260506155830 | 20 | 34 | 6.4 | 27.4 | 0.00 | 0.00 | 0.00 | 49 | 1013.0 |
| 20260506154822 | 19 | 300 | 4.8 | 17.7 | 0.00 | 0.00 | 0.00 | 52 | 1013.0 |
| 20260506153833 | 18 | 318 | 4.8 | 16.1 | 0.00 | 0.00 | 0.00 | 53 | 1013.2 |
| 20260506152826 | 18 | 330 | 4.8 | 17.7 | 0.00 | 0.00 | 0.00 | 55 | 1013.2 |
| 20260506151818 | 18 | 327 | 3.2 | 16.1 | 0.00 | 0.00 | 0.00 | 57 | 1013.2 |
| 20260506150827 | 17 | 34 | 9.7 | 29.0 | 0.00 | 0.00 | 0.00 | 58 | 1013.1 |
| 20260506145820 | 17 | 348 | 8.0 | 19.3 | 0.00 | 0.00 | 0.00 | 58 | 1013.1 |
| 20260506144828 | 17 | 262 | 3.2 | 19.3 | 0.00 | 0.00 | 0.00 | 59 | 1013.1 |
| 20260506143819 | 17 | 240 | 6.4 | 16.1 | 0.00 | 0.00 | 0.00 | 59 | 1013.1 |
| 20260506142832 | 17 | 262 | 1.6 | 8.0 | 0.00 | 0.00 | 0.00 | 59 | 1013.3 |
| 20260506141819 | 16 | 308 | 1.6 | 8.0 | 0.00 | 0.00 | 0.00 | 61 | 1013.3 |
| 20260506140817 | 16 | 280 | 1.6 | 6.4 | 0.00 | 0.00 | 0.00 | 63 | 1013.3 |
| 20260506135827 | 15 | 269 | 0.0 | 9.7 | 0.00 | 0.00 | 0.00 | 65 | 1013.3 |
| 20260506134838 | 15 | 360 | 1.6 | 6.4 | 0.00 | 0.00 | 0.00 | 67 | 1013.3 |
| 20260506133828 | 14 | 274 | 0.0 | 4.8 | 0.00 | 0.00 | 0.00 | 69 | 1013.2 |
| 20260506132837 | 13 | 81 | 3.2 | 17.7 | 0.00 | 0.00 | 0.00 | 70 | 1013.2 |
| 20260506131832 | 13 | 294 | 1.6 | 9.7 | 0.00 | 0.00 | 0.00 | 71 | 1013.2 |
| 20260506130822 | 13 | 333 | 1.6 | 8.0 | 0.00 | 0.00 | 0.00 | 71 | 1013.0 |
| 20260506125818 | 13 | 266 | 3.2 | 8.0 | 0.00 | 0.00 | 0.00 | 72 | 1013.0 |
| 20260506124830 | 12 | 237 | 0.0 | 8.0 | 0.00 | 0.00 | 0.00 | 72 | 1013.0 |
| 20260506123821 | 12 | 318 | 1.6 | 8.0 | 0.00 | 0.00 | 0.00 | 72 | 1013.0 |
| 20260506122831 | 12 | 263 | 0.0 | 4.8 | 0.00 | 0.00 | 0.00 | 71 | 1012.8 |
| 20260506121821 | 12 | 281 | 1.6 | 4.8 | 0.00 | 0.00 | 0.00 | 70 | 1012.8 |
| 20260506120832 | 13 | 293 | 0.0 | 0.0 | 0.00 | 0.00 | 0.00 | 67 | 1012.6 |
| 20260506115823 | 13 | 225 | 0.0 | 0.0 | 0.00 | 0.00 | 0.00 | 66 | 1012.3 |
| 20260506114836 | 14 | 214 | 1.6 | 6.4 | 0.00 | 0.00 | 0.00 | 66 | 1012.3 |
| 20260506113826 | 14 | 254 | 1.6 | 12.9 | 0.00 | 0.00 | 0.00 | 66 | 1012.3 |
| 20260506112838 | 14 | 308 | 3.2 | 11.3 | 0.00 | 0.00 | 0.00 | 65 | 1012.3 |
| 20260506111827 | 14 | 330 | 1.6 | 9.7 | 0.00 | 0.00 | 0.00 | 65 | 1012.3 |
| 20260506110838 | 15 | 324 | 3.2 | 9.7 | 0.00 | 0.00 | 0.00 | 64 | 1012.2 |
| 20260506105829 | 15 | 48 | 1.6 | 14.5 | 0.00 | 0.00 | 0.00 | 63 | 1012.1 |
| 20260506104819 | 15 | 96 | 0.0 | 9.7 | 0.00 | 0.00 | 0.00 | 64 | 1012.1 |
| 20260506103829 | 15 | 271 | 6.4 | 16.1 | 0.00 | 0.00 | 0.00 | 63 | 1011.9 |
| 20260506102821 | 15 | 302 | 1.6 | 12.9 | 0.00 | 0.00 | 0.00 | 63 | 1011.8 |
| 20260506101833 | 15 | 232 | 1.6 | 17.7 | 0.00 | 0.00 | 0.00 | 62 | 1011.8 |
| 20260506100823 | 15 | 323 | 3.2 | 16.1 | 0.00 | 0.00 | 0.00 | 61 | 1011.6 |
| 20260506095825 | 15 | 355 | 1.6 | 16.1 | 0.00 | 0.00 | 0.00 | 60 | 1011.6 |
| 20260506094824 | 15 | 348 | 1.6 | 11.3 | 0.00 | 0.00 | 0.00 | 60 | 1011.6 |
| 20260506093829 | 15 | 360 | 1.6 | 16.1 | 0.00 | 0.00 | 0.00 | 60 | 1011.6 |
| 20260506091824 | 15 | 330 | 0.0 | 6.4 | 0.00 | 0.00 | 0.00 | 61 | 1011.7 |
| 20260506090835 | 15 | 286 | 3.2 | 11.3 | 0.00 | 0.00 | 0.00 | 61 | 1011.6 |
| 20260506085827 | 15 | 229 | 0.0 | 6.4 | 0.00 | 0.00 | 0.00 | 62 | 1011.6 |
| 20260506084819 | 15 | 319 | 1.6 | 8.0 | 0.00 | 0.00 | 0.00 | 61 | 1011.6 |
| 20260506083831 | 15 | 342 | 3.2 | 11.3 | 0.00 | 0.00 | 0.00 | 61 | 1011.6 |
| 20260506082825 | 15 | 307 | 1.6 | 6.4 | 0.00 | 0.00 | 0.00 | 60 | 1011.6 |
| 20260506081834 | 15 | 342 | 0.0 | 9.7 | 0.00 | 0.00 | 0.00 | 60 | 1011.6 |
| 20260506080829 | 16 | 344 | 0.0 | 9.7 | 0.00 | 0.00 | 0.00 | 59 | 1011.5 |
| 20260506072835 | 16 | 343 | 3.2 | 8.0 | 0.00 | 0.00 | 0.00 | 59 | 1011.3 |
| 20260506071823 | 16 | 301 | 1.6 | 6.4 | 0.00 | 0.00 | 0.00 | 60 | 1011.3 |
| 20260506070819 | 16 | 351 | 1.6 | 9.7 | 0.00 | 0.00 | 0.00 | 59 | 1011.4 |
| 20260506061834 | 15 | 313 | 0.0 | 4.8 | 0.00 | 0.00 | 0.00 | 64 | 1011.3 |
| 20260506060822 | 16 | 243 | 0.0 | 4.8 | 0.00 | 0.00 | 0.00 | 64 | 1011.3 |
| 20260506050829 | 17 | 318 | 0.0 | 4.8 | 0.00 | 0.00 | 0.00 | 60 | 1010.8 |
| 20260506044838 | 17 | 333 | 1.6 | 11.3 | 0.00 | 0.00 | 0.00 | 59 | 1010.6 |
| 20260506042819 | 18 | 5 | 0.0 | 1.6 | 0.00 | 0.00 | 0.00 | 56 | 1010.2 |
| 20260506041829 | 19 | 78 | 0.0 | 1.6 | 0.00 | 0.00 | 0.00 | 53 | 1010.2 |
| 20260506040825 | 20 | 348 | 0.0 | 3.2 | 0.00 | 0.00 | 0.00 | 50 | 1010.1 |
| 20260506034838 | 21 | 360 | 0.0 | 4.8 | 0.00 | 0.00 | 0.00 | 47 | 1009.8 |
| 20260506033822 | 21 | 9 | 0.0 | 6.4 | 0.00 | 0.00 | 0.00 | 46 | 1009.4 |
| 20260506032831 | 21 | 312 | 0.0 | 6.4 | 0.00 | 0.00 | 0.00 | 44 | 1009.2 |
| 20260506031838 | 22 | 319 | 1.6 | 6.4 | 0.00 | 0.00 | 0.00 | 42 | 1009.2 |
| 20260506030830 | 22 | 271 | 1.6 | 14.5 | 0.00 | 0.00 | 0.00 | 40 | 1009.3 |
| 20260506025837 | 23 | 331 | 3.2 | 6.4 | 0.00 | 0.00 | 0.00 | 39 | 1009.2 |
| 20260506024825 | 23 | 36 | 3.2 | 9.7 | 0.00 | 0.00 | 0.00 | 36 | 1009.2 |
| 20260506022838 | 23 | 230 | 1.6 | 9.7 | 0.00 | 0.00 | 0.00 | 35 | 1008.8 |
| 20260506021834 | 24 | 337 | 4.8 | 12.9 | 0.00 | 0.00 | 0.00 | 34 | 1008.8 |
| 20260506020824 | 25 | 255 | 4.8 | 14.5 | 0.00 | 0.00 | 0.00 | 34 | 1009.0 |
| 20260506015829 | 25 | 198 | 3.2 | 11.3 | 0.00 | 0.00 | 0.00 | 34 | 1008.8 |
| 20260506014830 | 25 | 292 | 3.2 | 14.5 | 0.00 | 0.00 | 0.00 | 34 | 1008.8 |
| 20260506013835 | 26 | 307 | 4.8 | 14.5 | 0.00 | 0.00 | 0.00 | 34 | 1008.8 |
| 20260506012823 | 26 | 260 | 3.2 | 8.0 | 0.00 | 0.00 | 0.00 | 35 | 1008.7 |
| 20260506011837 | 26 | 232 | 0.0 | 11.3 | 0.00 | 0.00 | 0.00 | 35 | 1008.7 |
| 20260506010824 | 26 | 345 | 4.8 | 11.3 | 0.00 | 0.00 | 0.00 | 34 | 1008.9 |
| 20260506005829 | 27 | 281 | 0.0 | 9.7 | 0.00 | 0.00 | 0.00 | 34 | 1008.9 |
| 20260506004819 | 27 | 323 | 1.6 | 4.8 | 0.00 | 0.00 | 0.00 | 32 | 1008.9 |
| 20260506003823 | 27 | 240 | 1.6 | 6.4 | 0.00 | 0.00 | 0.00 | 32 | 1008.9 |
| 20260506002835 | 27 | 131 | 1.6 | 6.4 | 0.00 | 0.00 | 0.00 | 30 | 1008.7 |
| 20260506001838 | 27 | 122 | 3.2 | 8.0 | 0.00 | 0.00 | 0.00 | 33 | 1008.7 |
| 20260505235830 | 27 | 162 | 0.0 | 6.4 | 0.00 | 0.00 | 0.00 | 33 | 1009.2 |
| 20260505234835 | 27 | 235 | 3.2 | 8.0 | 0.00 | 0.00 | 0.00 | 32 | 1009.2 |
| 20260505233840 | 27 | 234 | 4.8 | 11.3 | 0.00 | 0.00 | 0.00 | 32 | 1009.2 |
| 20260505232822 | 27 | 24 | 3.2 | 9.7 | 0.00 | 0.00 | 0.00 | 33 | 1009.2 |